Lexington Weather

Lexington, Massachusetts, USA

24°F
3/3/2021 3:48am 
  • Lexington Conditions: Overcast
  • Temperature: 24.1°F / -4.4°CWarmer 1.3°F than last hour.
  • Dew Point: 10.6°FIncreased 0.4°Fsince last hour.
  • Relative Humidity: 56%Decreased 2.0% since last hour.
  • Wind: Wind from WSW WSW Calm, 10-min avg: 2 mph, gust: 8 mph
  • Barometer: 29.85 inFalling 0.02  inHg/hr Falling Slowly
  • Visibility: 10 miles
  • Snow Today: 0.0 in
  •   

Regional Weather Roundup
for Boston / Norton, MA

        
000
ASUS41 KBOX 010905
RWRBOX

REGIONAL WEATHER ROUNDUP
NATIONAL WEATHER SERVICE BOSTON/NORTON MA
400 AM EST MON MAR 01 2021

NOTE:  "FAIR" INDICATES FEW OR NO CLOUDS BELOW 12,000 FEET WITH NO 
SIGNIFICANT WEATHER AND/OR OBSTRUCTIONS TO VISIBILITY.

MAZALL-011000-
EASTERN MASSACHUSETTS
  
CITY           SKY/WX    TMP DP  RH WIND       PRES   REMARKS
BOSTON         DRIZZLE   37  37 100 E12       29.79F FOG     WCI  29  
BEVERLY        LGT RAIN  40  39  97 E12       29.79F FOG              
LAWRENCE       LGT RAIN  39  37  92 E5        29.81F FOG              
BEDFORD        LGT RAIN  38  36  92 E6        29.78F FOG              
BLUE HILL        N/A     37  37 100 E15       29.73F WCI  28          
NORWOOD        CLOUDY    40  38  93 E5        29.77F                  
MARSHFIELD     CLOUDY    41  41 100 SE8       29.78F FOG              
PLYMOUTH       LGT RAIN  44  42  93 SE8       29.77F                  
TAUNTON        LGT RAIN  43  41  93 SE9       29.75F                  
NEW BEDFORD    LGT RAIN  44  43  96 SE14      29.76F FOG              
$$

MAZALL-011000-
CAPE COD AND THE ISLANDS
  
CITY           SKY/WX    TMP DP  RH WIND       PRES   REMARKS
FALMOUTH       LGT RAIN  43  43 100 SE15G25   29.80F                  
HYANNIS        LGT RAIN  44  43  96 E13G21    29.78F                  
CHATHAM        LGT RAIN  43  42  97 SE9       29.82F                  
PROVINCETOWN   LGT RAIN  42  42 100 SE16      29.81F                  
NANTUCKET        N/A    N/A N/A N/A MISG      29.79F                  
MARTHAS VNYRD  LGT RAIN  44  43  96 SE14G23   29.78F FOG              
$$
 
MAZALL-011000-
CENTRAL AND WESTERN MASSACHUSETTS
  
CITY           SKY/WX    TMP DP  RH WIND       PRES   REMARKS
WORCESTER      RAIN      34  32  92 NE7       29.75F VSB 1/4 WCI  28  
FITCHBURG      LGT SNOW  34  34 100 NW3       29.80F FOG              
ORANGE         LGT RAIN  34  34 100 CALM      29.77F FOG              
SPRINGFIELD    LGT RAIN  35  35 100 N5        29.74F WCI  31          
WESTFIELD      LGT RAIN  34  34 100 N6        29.76F WCI  29          
NORTH ADAMS    LGT RAIN  39  36  89 NE13G21   29.73F WCI  31          
PITTSFIELD     LGT RAIN  34  33  96 NE7       29.71F WCI  28          
$$
 
RIZALL-011000-
RHODE ISLAND
  
CITY           SKY/WX    TMP DP  RH WIND       PRES   REMARKS
PROVIDENCE     LGT RAIN  43  42  97 SE6       29.76F                  
NEWPORT        LGT RAIN  43  42  97 E13G23    29.74F                  
BLOCK ISLAND   LGT RAIN  41  41 100 SE13      29.74F FOG              
SMITHFIELD     LGT RAIN  40  40 100 SE7       29.75F FOG              
WESTERLY       LGT RAIN  40  40 100 E12       29.74F                  
$$
 
CTZALL-011000-
CONNECTICUT
  
CITY           SKY/WX    TMP DP  RH WIND       PRES   REMARKS
BRADLEY INTL   LGT RAIN  35  33  92 N6        29.75F FOG     WCI  30  
HARTFORD       LGT RAIN  37  35  92 NW3       29.76F FOG              
BRIDGEPORT     LGT RAIN  41  40  96 E15       29.73F                  
DANBURY        LGT RAIN  39  36  89 NE3       29.74F FOG              
GROTON         LGT RAIN  43  42  97 E14       29.75F                  
NEW HAVEN      LGT RAIN  42  42 100 NE5       29.73F FOG              
CHESTER        LGT RAIN  43  43 100 E6        29.74F VSB 3/4          
MERIDEN        LGT RAIN  37  35  92 N3        29.75F                  
WILLIMANTIC    LGT RAIN  39  38  96 CALM      29.75F                  
OXFORD         LGT RAIN  36  36 100 VRB3      29.73F FOG              
$$

MEZ002-015-021-024-NHZ003-005-008-011-012-014-VTZ005-008-011000-
NORTHERN NEW ENGLAND
  
CITY           SKY/WX    TMP DP  RH WIND       PRES   REMARKS
PORTLAND ME    LGT RAIN  38  38 100 SE8       29.87F FOG              
BANGOR ME      CLOUDY    37  31  78 S9        29.92F WCI  30          
CONCORD NH     MIX PCPN  36  35  96 CALM      29.80F FOG              
MANCHESTER NH  LGT RAIN  38  36  92 CALM      29.79F FOG              
NASHUA NH      MIX PCPN  36  36 100 CALM      29.81F FOG              
PORTSMOUTH NH  NOT AVBL                                               
JAFFREY NH     LGT RAIN  35  33  92 CALM      29.76F FOG              
KEENE NH       LGT RAIN  34  34 100 CALM      29.78F FOG              
BURLINGTON VT  CLOUDY    38  33  82 S15       29.62F WCI  29          
MT. WASHINGTON FRZ DRZL  21  21 100 S56G63      N/A  VSB 1/16WCI  -2  
$$

NYZ052-076-011000-
EASTERN NEW YORK
  
CITY           SKY/WX    TMP DP  RH WIND       PRES   REMARKS
ALBANY         CLOUDY    36  36 100 SE10      29.70F WCI  28          
NEW YORK CITY  LGT RAIN  39  37  92 NE9       29.73F VSB 1/2          
$$
 
ANZALL-011000-
MARINE OBSERVATIONS
  
STATION/POSITION TIME  TEMP    WIND        PRES    VSBY  WAVE
                       AIR SEA DIR/SP/G                  HT/PER
                 (UTC) (F)     (DEG/KT/KT) (MB)    (MI)  (FT/S)
BOSTON BUOY      0850   39 39  110/ 12/ 14 1009.5F         3/ 5
BUZZARDS BAY     0800          100/ 19/ 22 1010.4F
NANTUCKET SOUND  0850      37  120/ 16/ 19   N/A           2/ 3
MASS BAY-STELLWA 0804   40     120/ 14/ 16 1010.4F  1 7/8  4/ 5
ISLE OF SHOALS   0800   39     120/ 17/ 19 1011.3F
S OF BLOCK IS    0856      40                N/A           6/ 8
$$

......................KEY.........................
  SKY/WX - SKY CONDITION/PRESENT WEATHER
  TMP    - TEMPERATURE IN FAHRENHEIT
  DWPT   - DEWPOINT IN FAHRENHEIT
  RH     - RELATIVE HUMIDITY IN PERCENT
  WIND   - DIRECTION AND SPEED IN MPH
  PRES   - MEAN SEA LEVEL PRESSURE IN INCHES OF HG
  WCI    - WIND CHILL INDEX
  VSB    - VISIBILITY IN MILES
  HX     - HEAT INDEX
  TC     - TEMPERATURE IN CELSIUS
  VRB    - VARIABLE WIND DIRECTION
  N/A    - NOT AVAILABLE
  
      

Other recent Regional Weather Roundups

Wed Mar 3, 3:04am

Wed Mar 3, 2:04am

Wed Mar 3, 1:04am

Wed Mar 3, 12:04am

Tue Mar 2, 11:04pm

Tue Mar 2, 10:05pm

Tue Mar 2, 9:04pm

Tue Mar 2, 8:04pm

Tue Mar 2, 7:04pm

Tue Mar 2, 6:04pm

Tue Mar 2, 5:04pm

Tue Mar 2, 4:05pm

Tue Mar 2, 3:04pm

Tue Mar 2, 2:04pm

Tue Mar 2, 1:04pm

Tue Mar 2, 12:04pm

Tue Mar 2, 11:04am

Tue Mar 2, 10:05am

Tue Mar 2, 9:04am

Tue Mar 2, 8:04am

Tue Mar 2, 7:04am

Tue Mar 2, 6:05am

Tue Mar 2, 5:04am

Tue Mar 2, 4:04am

Tue Mar 2, 3:04am

Tue Mar 2, 2:04am

Tue Mar 2, 1:04am

Tue Mar 2, 12:04am

Mon Mar 1, 11:04pm

Mon Mar 1, 10:04pm

Mon Mar 1, 9:04pm

Mon Mar 1, 8:04pm

Mon Mar 1, 7:04pm

Mon Mar 1, 6:04pm

Mon Mar 1, 5:04pm

Mon Mar 1, 4:05pm

Mon Mar 1, 3:05pm

Mon Mar 1, 2:04pm

Mon Mar 1, 1:04pm

Mon Mar 1, 12:04pm

Mon Mar 1, 11:04am

Mon Mar 1, 10:04am

Mon Mar 1, 9:04am

Mon Mar 1, 8:05am

Mon Mar 1, 7:04am

Mon Mar 1, 6:04am

Mon Mar 1, 5:04am

Mon Mar 1, 3:04am

Mon Mar 1, 2:04am

Mon Mar 1, 1:04am

Mon Mar 1, 12:05am

Sun Feb 28, 11:04pm

Sun Feb 28, 10:04pm

Sun Feb 28, 9:04pm

Sun Feb 28, 8:04pm

Sun Feb 28, 7:04pm

Sun Feb 28, 6:05pm

Sun Feb 28, 5:04pm

Sun Feb 28, 4:05pm

Sun Feb 28, 3:04pm

Sun Feb 28, 2:04pm

Sun Feb 28, 1:04pm

Sun Feb 28, 12:04pm

Sun Feb 28, 11:04am

Sun Feb 28, 10:04am

Sun Feb 28, 9:04am

Sun Feb 28, 8:04am

Sun Feb 28, 7:04am

Sun Feb 28, 6:04am

Sun Feb 28, 5:04am

Sun Feb 28, 4:04am

Sun Feb 28, 3:04am

Sun Feb 28, 2:04am

Sun Feb 28, 1:04am

Sun Feb 28, 12:04am

Sat Feb 27, 11:04pm

Sat Feb 27, 10:04pm

Sat Feb 27, 9:04pm

Sat Feb 27, 8:04pm

Sat Feb 27, 7:04pm

Sat Feb 27, 6:04pm

Sat Feb 27, 5:04pm

Sat Feb 27, 4:04pm

Sat Feb 27, 3:05pm

Sat Feb 27, 2:05pm

Sat Feb 27, 1:04pm

Sat Feb 27, 12:04pm

Sat Feb 27, 11:04am

Sat Feb 27, 10:04am

Sat Feb 27, 9:05am

Sat Feb 27, 8:04am

Sat Feb 27, 7:04am

Sat Feb 27, 6:04am

Sat Feb 27, 5:04am

Sat Feb 27, 4:04am

Sat Feb 27, 3:04am

Sat Feb 27, 2:04am

Sat Feb 27, 1:04am

Sat Feb 27, 12:04am

Fri Feb 26, 11:04pm

Fri Feb 26, 10:04pm

Fri Feb 26, 9:04pm

Fri Feb 26, 8:04pm

Fri Feb 26, 7:04pm

Fri Feb 26, 6:04pm

Fri Feb 26, 5:04pm

Fri Feb 26, 4:04pm

Fri Feb 26, 3:04pm

Fri Feb 26, 2:04pm

Fri Feb 26, 1:04pm

Fri Feb 26, 12:04pm

Fri Feb 26, 11:04am

Fri Feb 26, 10:04am

Fri Feb 26, 9:04am

Fri Feb 26, 8:04am

Fri Feb 26, 7:04am

Fri Feb 26, 6:04am

Fri Feb 26, 5:04am

Fri Feb 26, 4:04am

Fri Feb 26, 3:04am

Fri Feb 26, 2:04am

Fri Feb 26, 1:04am

Fri Feb 26, 12:04am

Thu Feb 25, 11:04pm

Thu Feb 25, 10:04pm

Thu Feb 25, 9:04pm

Thu Feb 25, 8:05pm

Thu Feb 25, 7:05pm

Thu Feb 25, 6:04pm

Thu Feb 25, 5:04pm

Thu Feb 25, 4:05pm

Thu Feb 25, 3:05pm

Thu Feb 25, 2:04pm

Thu Feb 25, 1:04pm

Thu Feb 25, 12:05pm

Thu Feb 25, 11:04am

Thu Feb 25, 10:04am

Thu Feb 25, 9:04am

Thu Feb 25, 8:04am

Thu Feb 25, 7:04am

Thu Feb 25, 6:04am

Thu Feb 25, 5:04am

Thu Feb 25, 4:04am

Thu Feb 25, 3:04am

Thu Feb 25, 2:04am

Thu Feb 25, 1:04am

Thu Feb 25, 12:04am

Wed Feb 24, 11:04pm

Wed Feb 24, 10:05pm

Wed Feb 24, 9:04pm

Wed Feb 24, 8:04pm

Wed Feb 24, 7:04pm

Wed Feb 24, 6:04pm

Wed Feb 24, 5:04pm

Wed Feb 24, 4:04pm

Wed Feb 24, 3:04pm

Wed Feb 24, 2:05pm

Wed Feb 24, 1:05pm

Wed Feb 24, 12:05pm

Wed Feb 24, 11:04am

Wed Feb 24, 10:04am

Wed Feb 24, 9:04am

Wed Feb 24, 8:04am

Wed Feb 24, 7:04am

Wed Feb 24, 6:04am

Wed Feb 24, 5:04am

Wed Feb 24, 4:04am

Meta data:

ID: c8424f88-73fc-4439-be5c-b28b4e8e4487
Link: https://api.weather.gov/products/c8424f88-73fc-4439-be5c-b28b4e8e4487